Location: ????????
(48.4751°N, 37.6926°E)
Time: 13:36:06
(UTC+00:00)

Meteor 2-15 - Pass Details

Date: 20 January 2021
Orbit: 936 x 955 km, 82.5° (Epoch: 26 February)

Event Time Altitude Azimuth Distance (km) Brightness Sun altitude
Rises 16:30:29 0° 352° (N) 3,645 7.5 -23.0°
Reaches altitude 10° 16:33:02 10° 356° (N) 2,696 6.8 -23.4°
Maximum altitude 16:39:08 61° 76° (ENE) 1,083 4.4 -24.4°
Enters shadow 16:40:32 49° 126° (SE) 1,220 4.6 -24.7°
